GW2260 Weather Reports


Display with metric or nautical units.
time (UTC)temp
F
wind
direction
speed
MPH
gust
MPH
rain 1hr
in
rain 24hr
in
rain mn
in
humidity
%
barometer
mb
20260509153055 58 104 2.0 4.0 0.00 0.00 0.00 81 1018.9
20260509153018 59 102 2.0 3.0 0.00 0.00 0.00 82 1019.0
20260509152018 59 110 2.0 4.0 0.00 0.00 0.00 82 1019.1
20260509151550 58 91 2.0 4.0 0.00 0.00 0.00 82 1019.1
20260509151019 59 98 2.0 3.0 0.00 0.00 0.00 84 1019.0
20260509150047 59 94 2.0 4.0 0.00 0.00 0.00 81 1018.7
20260509150019 59 115 3.0 4.0 0.00 0.00 0.00 81 1018.7
20260509145018 59 99 2.0 3.0 0.00 0.00 0.00 81 1018.8
20260509144543 59 108 2.0 3.0 0.00 0.00 0.00 80 1018.6
20260509144019 59 102 2.0 3.0 0.00 0.00 0.00 79 1018.7
20260509143041 59 130 2.0 4.0 0.00 0.00 0.00 78 1018.5
20260509143019 59 106 3.0 4.0 0.00 0.00 0.00 78 1018.6
20260509142018 59 114 2.0 4.0 0.00 0.00 0.00 77 1018.8
20260509141541 59 113 2.0 4.0 0.00 0.00 0.00 78 1018.6
20260509141018 59 114 2.0 3.0 0.00 0.00 0.00 79 1018.6
20260509140047 59 125 2.0 5.0 0.00 0.00 0.00 78 1018.4
20260509140017 59 114 2.0 3.0 0.00 0.00 0.00 78 1018.6
20260509135018 59 108 2.0 2.0 0.00 0.00 0.00 76 1018.7
20260509134545 59 98 2.0 3.0 0.00 0.00 0.00 76 1018.6
20260509134039 60 116 2.0 3.0 0.00 0.00 0.00 77 1018.6
20260509133043 60 128 2.0 6.0 0.00 0.00 0.00 77 1018.6
20260509133039 60 106 2.0 3.0 0.00 0.00 0.00 77 1018.5
20260509132018 60 105 3.0 4.0 0.00 0.00 0.00 78 1018.7
20260509131544 59 130 2.0 6.0 0.00 0.00 0.00 76 1018.6
20260509131018 60 116 3.0 6.0 0.00 0.00 0.00 76 1018.7
20260509130041 59 128 2.0 4.0 0.00 0.00 0.00 76 1018.6
20260509130018 60 111 3.0 4.0 0.00 0.00 0.00 76 1018.7
20260509125019 60 126 2.0 3.0 0.00 0.00 0.00 77 1018.8
20260509124541 59 101 1.0 2.0 0.00 0.00 0.00 77 1018.7
20260509124039 60 131 1.0 1.0 0.00 0.00 0.00 83 1018.8
20260509123046 60 101 1.0 3.0 0.00 0.00 0.00 78 1018.8
20260509123018 60 97 2.0 3.0 0.00 0.00 0.00 79 1018.9
20260509122018 60 119 2.0 3.0 0.00 0.00 0.00 79 1019.2
20260509121545 59 117 2.0 4.0 0.00 0.00 0.00 79 1019.2
20260509121039 60 109 2.0 3.0 0.00 0.00 0.00 81 1019.3
20260509120052 60 121 2.0 4.0 0.00 0.00 0.00 80 1019.3
20260509120018 60 128 3.0 4.0 0.00 0.00 0.00 80 1019.4
20260509115018 60 101 2.0 3.0 0.00 0.00 0.00 81 1019.5
20260509114540 60 110 2.0 4.0 0.00 0.00 0.00 80 1019.4
20260509114018 60 124 2.0 3.0 0.00 0.00 0.00 82 1019.6
20260509113042 60 119 1.0 3.0 0.00 0.00 0.00 81 1019.7
20260509113018 60 103 2.0 3.0 0.00 0.00 0.00 81 1019.7
20260509112018 60 104 2.0 2.0 0.00 0.00 0.00 79 1019.7
20260509111546 60 109 1.0 3.0 0.00 0.00 0.00 76 1019.7
20260509111018 60 115 2.0 3.0 0.00 0.00 0.00 76 1019.9
20260509110047 60 112 2.0 4.0 0.00 0.00 0.00 74 1019.8
20260509110018 61 91 2.0 3.0 0.00 0.00 0.00 75 1019.8
20260509105018 60 108 2.0 6.0 0.00 0.00 0.00 75 1020.0
20260509104541 60 97 2.0 6.0 0.00 0.00 0.00 75 1019.8
20260509104018 60 104 2.0 3.0 0.00 0.00 0.00 75 1019.9
20260509103041 60 109 1.0 4.0 0.00 0.00 0.00 73 1019.9
20260509102018 61 113 2.0 2.0 0.00 0.00 0.00 71 1020.2
20260509101551 60 120 1.0 3.0 0.00 0.00 0.00 69 1020.1
20260509101018 61 112 1.0 2.0 0.00 0.00 0.00 71 1020.3
20260509100051 60 108 2.0 4.0 0.00 0.00 0.00 70 1020.1
20260509100039 61 129 3.0 4.0 0.00 0.00 0.00 71 1020.1
20260509095039 61 102 2.0 3.0 0.00 0.00 0.00 71 1020.4
20260509094542 60 104 1.0 6.0 0.00 0.00 0.00 71 1020.5
20260509094018 61 108 2.0 4.0 0.00 0.00 0.00 71 1020.5
20260509093041 61 115 2.0 6.0 0.00 0.00 0.00 70 1020.6
20260509093039 61 95 3.0 6.0 0.00 0.00 0.00 71 1020.6
20260509092018 62 46 2.0 4.0 0.00 0.00 0.00 72 1020.7
20260509091544 61 107 2.0 9.0 0.00 0.00 0.00 70 1020.8
20260509091018 61 101 3.0 4.0 0.00 0.00 0.00 69 1020.8
20260509090044 60 108 2.0 7.0 0.00 0.00 0.00 70 1020.6
20260509090018 61 124 2.0 3.0 0.00 0.00 0.00 70 1020.8
20260509085039 61 107 4.0 7.0 0.00 0.00 0.00 73 1020.8
20260509084544 60 90 3.0 6.0 0.00 0.00 0.00 74 1020.8
20260509084018 61 108 3.0 5.0 0.00 0.00 0.00 74 1020.8
20260509083044 60 111 2.0 4.0 0.00 0.00 0.00 77 1020.8
20260509083018 61 108 3.0 4.0 0.00 0.00 0.00 78 1020.9
20260509082039 61 108 3.0 3.0 0.00 0.00 0.00 76 1021.1
20260509081543 61 82 1.0 4.0 0.00 0.00 0.00 76 1020.9
20260509081018 62 107 1.0 2.0 0.00 0.00 0.00 76 1020.9
20260509080143 61 115 2.0 3.0 0.00 0.00 0.00 75 1020.8
20260509080050 61 109 2.0 4.0 0.00 0.00 0.00 75 1020.6
20260509075100 61 117 2.0 3.0 0.00 0.00 0.00 76 1020.7
20260509074548 61 123 3.0 6.0 0.00 0.00 0.00 76 1020.6
20260509074018 61 136 3.0 3.0 0.00 0.00 0.00 78 1020.7
20260509073114 61 124 2.0 5.0 0.00 0.00 0.00 77 1020.6
20260509073018 61 122 3.0 4.0 0.00 0.00 0.00 78 1020.6
20260509072018 61 107 3.0 4.0 0.00 0.00 0.00 78 1020.7
20260509071542 61 118 3.0 6.0 0.00 0.00 0.00 78 1020.6
20260509071039 62 110 3.0 6.0 0.00 0.00 0.00 78 1020.6
20260509070048 61 117 3.0 6.0 0.00 0.00 0.00 78 1020.5
20260509070018 62 113 3.0 6.0 0.00 0.00 0.00 78 1020.5
20260509065017 62 113 3.0 6.0 0.00 0.00 0.00 79 1020.2
20260509064541 61 109 3.0 6.0 0.00 0.00 0.00 78 1020.2
20260509064018 62 112 4.0 6.0 0.00 0.00 0.00 78 1020.3
20260509063040 61 119 3.0 6.0 0.00 0.00 0.00 77 1020.1
20260509063018 62 114 3.0 4.0 0.00 0.00 0.00 77 1020.1
20260509062017 62 112 3.0 4.0 0.00 0.00 0.00 79 1020.0
20260509061546 61 113 2.0 6.0 0.00 0.00 0.00 80 1019.9
20260509061039 62 116 3.0 4.0 0.00 0.00 0.00 79 1020.0
20260509060052 61 123 2.0 4.0 0.00 0.00 0.00 79 1019.9
20260509060017 62 117 2.0 3.0 0.00 0.00 0.00 80 1019.9
20260509055018 62 117 3.0 4.0 0.00 0.00 0.00 80 1019.8
20260509054550 61 130 2.0 6.0 0.00 0.00 0.00 80 1019.8
20260509054039 62 107 2.0 4.0 0.00 0.00 0.00 83 1019.9
20260509053041 61 135 2.0 4.0 0.00 0.00 0.00 87 1019.9
20260509053017 62 124 3.0 4.0 0.00 0.00 0.00 88 1019.9
20260509052017 62 111 3.0 3.0 0.00 0.00 0.00 90 1019.8
20260509051541 62 128 1.0 3.0 0.00 0.00 0.00 90 1019.6
20260509051018 62 118 2.0 3.0 0.00 0.00 0.00 90 1019.7
20260509050040 63 132 1.0 3.0 0.00 0.00 0.00 89 1019.8
20260509050038 63 140 1.0 2.0 0.00 0.00 0.00 89 1019.7
20260509045017 65 220 2.0 2.0 0.00 0.00 0.00 86 1019.6
20260509044542 65 241 0.0 1.0 0.00 0.00 0.00 85 1019.4
20260509044039 66 0.0 1.0 0.00 0.00 0.00 84 1019.5
20260509043046 66 0 0.0 3.0 0.00 0.00 0.00 84 1019.2
20260509043017 66 340 0.0 3.0 0.00 0.00 0.00 84 1019.2
20260509042017 66 0.0 0.0 0.00 0.00 0.00 88 1019.3
20260509041542 66 336 0.0 5.0 0.00 0.00 0.00 87 1019.2
20260509041017 66 304 0.0 1.0 0.00 0.00 0.00 88 1019.3
20260509040056 66 352 1.0 4.0 0.00 0.00 0.00 89 1019.1
20260509040018 66 326 2.0 4.0 0.00 0.00 0.00 90 1019.1
20260509035039 66 336 2.0 3.0 0.00 0.00 0.00 92 1019.0
20260509034548 66 347 1.0 6.0 0.00 0.00 0.00 92 1018.8
20260509034039 66 313 2.0 3.0 0.00 0.00 0.00 92 1018.8
20260509033042 66 335 5.0 12.0 0.00 0.00 0.00 90 1018.7
20260509033039 66 336 4.0 8.0 0.00 0.00 0.00 91 1018.7
20260509032018 67 336 8.0 12.0 0.00 0.00 0.00 90 1018.8
20260509031544 67 334 5.0 11.0 0.00 0.00 0.00 88 1018.7
20260509031017 68 337 2.0 9.0 0.00 0.00 0.00 87 1018.8
20260509030046 68 329 4.0 11.0 0.00 0.00 0.00 86 1018.5
20260509030017 69 340 7.0 11.0 0.00 0.00 0.00 86 1018.5
20260509025017 69 349 6.0 12.0 0.00 0.00 0.00 86 1018.4
20260509024548 68 301 5.0 13.0 0.00 0.00 0.00 86 1018.4
20260509024018 69 342 8.0 12.0 0.00 0.00 0.00 86 1018.3
20260509023044 68 325 6.0 13.0 0.00 0.00 0.00 86 1018.2
20260509023017 69 342 7.0 11.0 0.00 0.00 0.00 86 1018.3
20260509022018 69 351 6.0 10.0 0.00 0.00 0.00 85 1018.4
20260509021544 69 349 6.0 11.0 0.00 0.00 0.00 84 1018.3
20260509021017 69 304 5.0 8.0 0.00 0.00 0.00 85 1018.4
20260509020041 68 14 5.0 15.0 0.00 0.00 0.00 86 1018.4
20260509020018 68 338 5.0 9.0 0.00 0.00 0.00 86 1018.4
20260509015017 69 347 9.0 14.0 0.00 0.00 0.00 83 1018.7
20260509014544 69 274 6.0 13.0 0.00 0.00 0.00 83 1018.7
20260509014017 70 342 5.0 9.0 0.00 0.00 0.00 85 1018.8
20260509013044 70 341 6.0 17.0 0.00 0.00 0.00 82 1018.8
20260509013018 71 343 6.0 12.0 0.00 0.00 0.00 83 1018.8
20260509012018 71 338 6.0 11.0 0.00 0.00 0.00 83 1018.8
20260509011556 70 300 7.0 14.0 0.00 0.00 0.00 82 1018.7
20260509011017 70 333 7.0 10.0 0.00 0.00 0.00 82 1018.7
20260509010048 71 329 8.0 14.0 0.00 0.00 0.00 82 1018.7
20260509010018 71 341 8.0 14.0 0.00 0.00 0.00 82 1018.9
20260509005038 71 337 9.0 13.0 0.00 0.00 0.00 83 1018.8
20260509004600 71 316 6.0 12.0 0.00 0.00 0.00 83 1018.8
20260509004017 71 317 4.0 8.0 0.00 0.00 0.00 83 1018.9
20260509003044 70 13 7.0 14.0 0.00 0.00 0.00 82 1019.1
20260509003018 70 343 7.0 11.0 0.00 0.00 0.00 83 1019.1
20260509002017 71 298 4.0 8.0 0.00 0.00 0.00 85 1019.0
20260509001541 70 15 3.0 11.0 0.00 0.00 0.00 84 1018.9
20260509001017 70 316 3.0 8.0 0.00 0.00 0.00 84 1018.9
20260509000041 70 352 3.0 9.0 0.00 0.00 0.00 81 1018.8
20260509000039 70 327 3.0 7.0 0.00 0.00 0.00 82 1018.9
20260508235039 70 317 3.0 6.0 0.00 0.00 0.00 84 1019.0
20260508234536 70 346 4.0 10.0 0.00 0.00 0.00 83 1019.0
20260508234018 70 303 5.0 8.0 0.00 0.00 0.00 82 1019.1
20260508233044 70 273 7.0 13.0 0.00 0.00 0.00 80 1019.4
20260508233018 70 4 6.0 11.0 0.00 0.00 0.00 79 1019.4
20260508232017 71 27 1.0 3.0 0.00 0.00 0.00 80 1019.4
20260508231542 70 306 2.0 9.0 0.00 0.00 0.00 79 1019.3
20260508231018 71 329 4.0 9.0 0.00 0.00 0.00 77 1019.4
20260508230041 71 302 3.0 11.0 0.00 0.00 0.00 76 1019.5
20260508230018 72 355 4.0 7.0 0.00 0.00 0.00 75 1019.6
20260508225017 71 332 5.0 11.0 0.00 0.00 0.00 78 1019.7
20260508224540 71 5 4.0 11.0 0.00 0.00 0.00 76 1019.6
20260508224017 71 236 1.0 3.0 0.00 0.00 0.00 77 1019.8
20260508223048 70 351 2.0 11.0 0.00 0.00 0.00 75 1019.7
20260508223017 70 344 3.0 5.0 0.00 0.00 0.00 75 1019.8
20260508222039 70 299 3.0 6.0 0.00 0.00 0.00 81 1020.0
20260508221544 70 333 5.0 11.0 0.00 0.00 0.00 77 1020.0
20260508221039 70 342 7.0 10.0 0.00 0.00 0.00 81 1020.2
20260508220043 69 322 3.0 12.0 0.00 0.00 0.00 79 1020.2
20260508220018 70 306 3.0 8.0 0.00 0.00 0.00 80 1020.1
20260508215017 70 342 3.0 9.0 0.00 0.00 0.00 80 1020.2
20260508214559 70 337 5.0 9.0 0.00 0.00 0.00 76 1020.1
20260508214039 70 287 4.0 7.0 0.00 0.00 0.00 81 1020.5
20260508213041 69 338 2.0 8.0 0.00 0.00 0.00 77 1020.5
20260508213038 70 345 4.0 8.0 0.00 0.00 0.00 79 1020.6
20260508212017 70 318 4.0 6.0 0.00 0.00 0.00 79 1020.7
20260508211542 70 333 3.0 10.0 0.00 0.00 0.00 82 1020.6
20260508211018 70 321 3.0 6.0 0.00 0.00 0.00 83 1020.5
20260508210045 70 317 2.0 8.0 0.00 0.00 0.00 81 1020.7
20260508210039 70 326 4.0 8.0 0.00 0.00 0.00 81 1020.7
20260508205018 70 308 3.0 6.0 0.00 0.00 0.00 75 1020.9
20260508204545 70 327 2.0 7.0 0.00 0.00 0.00 77 1020.8
20260508204017 70 329 3.0 4.0 0.00 0.00 0.00 74 1021.0
20260508203045 70 352 2.0 5.0 0.00 0.00 0.00 76 1020.8
20260508203017 70 319 2.0 4.0 0.00 0.00 0.00 74 1020.8
20260508202038 70 339 2.0 3.0 0.00 0.00 0.00 73 1020.9
20260508201541 70 329 2.0 6.0 0.00 0.00 0.00 74 1021.1
20260508201017 71 331 4.0 5.0 0.00 0.00 0.00 73 1021.0
20260508200042 70 345 2.0 6.0 0.00 0.00 0.00 72 1021.0
20260508200017 70 331 4.0 5.0 0.00 0.00 0.00 73 1021.0
20260508195018 69 336 3.0 5.0 0.00 0.00 0.00 74 1020.8
20260508194544 69 332 2.0 8.0 0.00 0.00 0.00 79 1020.9
20260508194039 69 334 2.0 3.0 0.00 0.00 0.00 79 1021.0
20260508193057 69 352 2.0 7.0 0.00 0.00 0.00 79 1021.0
20260508193017 69 343 3.0 7.0 0.00 0.00 0.00 81 1021.0
20260508192017 69 336 4.0 5.0 0.00 0.00 0.00 75 1021.2
20260508191544 69 348 3.0 10.0 0.00 0.00 0.00 73 1021.0
20260508191018 69 333 3.0 7.0 0.00 0.00 0.00 75 1021.1
20260508190040 68 342 2.0 8.0 0.00 0.00 0.00 75 1020.9
20260508190018 69 307 3.0 8.0 0.00 0.00 0.00 78 1020.9
20260508185018 68 338 4.0 6.0 0.00 0.00 0.00 72 1021.0
20260508184538 67 349 3.0 9.0 0.00 0.00 0.00 71 1020.9
20260508184017 68 324 6.0 9.0 0.00 0.00 0.00 71 1021.0
20260508183049 67 352 3.0 6.0 0.00 0.00 0.00 70 1021.1
20260508183039 68 344 2.0 5.0 0.00 0.00 0.00 69 1021.1
20260508182018 68 329 3.0 5.0 0.00 0.00 0.00 70 1021.0
20260508181555 68 22 2.0 8.0 0.00 0.00 0.00 67 1021.0
20260508181018 68 35 4.0 6.0 0.00 0.00 0.00 64 1020.9
20260508180044 67 336 2.0 7.0 0.00 0.00 0.00 66 1021.1
20260508180018 68 23 2.0 3.0 0.00 0.00 0.00 65 1021.2
20260508175017 67 35 2.0 4.0 0.00 0.00 0.00 66 1021.0
20260508174541 66 60 1.0 4.0 0.00 0.00 0.00 66 1020.8
20260508174018 65 350 1.0 3.0 0.00 0.00 0.00 68 1020.9
20260508173041 63 38 0.0 6.0 0.00 0.00 0.00 72 1020.6
20260508173017 63 78 0.0 2.0 0.00 0.00 0.00 72 1020.7
20260508172017 61 96 2.0 4.0 0.00 0.00 0.00 73 1020.7
20260508171545 60 113 3.0 7.0 0.00 0.00 0.00 74 1020.6
20260508171018 60 91 3.0 4.0 0.00 0.00 0.00 75 1020.6
20260508170100 59 104 3.0 4.0 0.00 0.00 0.00 77 1020.5
20260508170045 59 88 2.0 7.0 0.00 0.00 0.00 77 1020.5
20260508165038 59 109 2.0 4.0 0.00 0.00 0.00 79 1020.4
20260508164542 58 94 2.0 4.0 0.00 0.00 0.00 79 1020.3
20260508164018 58 103 2.0 3.0 0.00 0.00 0.00 80 1020.4
20260508163047 58 123 3.0 6.0 0.00 0.00 0.00 80 1020.2
20260508163017 58 106 3.0 6.0 0.00 0.00 0.00 81 1020.2
20260508162017 58 108 3.0 4.0 0.00 0.00 0.00 82 1020.1
20260508161542 57 87 2.0 6.0 0.00 0.00 0.00 82 1020.0
20260508161017 57 107 3.0 6.0 0.00 0.00 0.00 83 1020.0
20260508160100 57 113 2.0 4.0 0.00 0.00 0.00 84 1019.7
20260508160017 57 110 2.0 3.0 0.00 0.00 0.00 84 1019.8
20260508155017 57 107 2.0 3.0 0.00 0.00 0.00 84 1019.7
20260508154543 56 102 2.0 4.0 0.00 0.00 0.00 84 1019.7
20260508154038 57 113 2.0 4.0 0.00 0.00 0.00 85 1019.8